This demonstration page uses our WeatherBlox Daily Observations layout. Learn more.

Left ArrowRight Arrow

53.62937, 11.41316

Hourly Observations for January 21, 2020

Temp ( °F °C ) Dew Point ( °F °C ) Humidity (%) Winds ( mph kmh ) Pressure ( in mb ) Visibility ( mi km ) Precip ( " mm )
6:50 am 06:50 Mostly Cloudy 39 4 37 3 93 93 W 13 20 30.65 1038 5 8 N/A
7:20 am 07:20 Mostly Cloudy 39 4 36 2 87 87 W 14 22 30.65 1038 30 48 N/A
7:50 am 07:50 Mostly Cloudy 39 4 36 2 87 87 W 15 24 30.65 1038 30 48 N/A
8:20 am 08:20 Mostly Cloudy 39 4 36 2 87 87 W 16 26 30.65 1038 30 48 N/A
8:50 am 08:50 Mostly Cloudy 39 4 36 2 87 87 W 12 19 30.68 1039 6 9 N/A
9:20 am 09:20 Mostly Cloudy 39 4 36 2 87 87 W 14 22 30.68 1039 30 48 N/A
9:50 am 09:50 Mostly Cloudy 39 4 36 2 87 87 W 14 22 30.68 1039 30 48 N/A
10:20 am 10:20 Mostly Cloudy 39 4 36 2 87 87 W 14 22 30.68 1039 6 9 N/A
10:50 am 10:50 Mostly Cloudy 39 4 37 3 93 93 W 12 19 30.68 1039 5 8 N/A
11:20 am 11:20 Mostly Cloudy 39 4 37 3 93 93 W 13 20 30.68 1039 4 7 N/A
11:50 am 11:50 Cloudy with Mist and Fog 39 4 37 3 93 93 W 12 19 30.68 1039 3 5 N/A
12:20 pm 12:20 Mostly Cloudy with Mist and Fog 39 4 37 3 93 93 W 13 20 30.68 1039 4 6 N/A
12:50 pm 12:50 Mostly Cloudy 41 5 37 3 87 87 W 10 17 30.65 1038 3 5 N/A
1:20 pm 13:20 Mostly Cloudy 41 5 37 3 87 87 W 12 19 30.65 1038 3 5 N/A
1:50 pm 13:50 Mostly Cloudy 41 5 37 3 87 87 W 9 15 30.65 1038 4 6 N/A
2:20 pm 14:20 Mostly Cloudy 41 5 37 3 87 87 W 12 19 30.62 1037 4 6 N/A
2:50 pm 14:50 Mostly Cloudy 41 5 37 3 87 87 WSW 14 22 30.62 1037 5 8 N/A
3:20 pm 15:20 Mostly Cloudy 41 5 36 2 81 81 W 12 19 30.62 1037 5 8 N/A
3:50 pm 15:50 Mostly Cloudy 41 5 36 2 81 81 W 12 19 30.60 1036 30 48 N/A
4:20 pm 16:20 Mostly Cloudy 41 5 36 2 81 81 W 12 19 30.60 1036 30 48 N/A
4:50 pm 16:50 Mostly Cloudy 41 5 36 2 81 81 W 15 24 30.60 1036 30 48 N/A
5:20 pm 17:20 Mostly Cloudy 41 5 36 2 81 81 W 10 17 30.60 1036 30 48 N/A
5:50 pm 17:50 Mostly Clear 41 5 36 2 81 81 W 12 19 30.60 1036 7 11 N/A
6:20 pm 18:20 Mostly Cloudy 41 5 36 2 81 81 W 9 15 30.60 1036 30 48 N/A
6:50 pm 18:50 Mostly Cloudy 41 5 36 2 81 81 W 7 11 30.60 1036 30 48 N/A
7:20 pm 19:20 Mostly Cloudy 41 5 37 3 87 87 W 8 13 30.60 1036 30 48 N/A
7:50 pm 19:50 Mostly Cloudy 41 5 37 3 87 87 W 8 13 30.57 1035 6 9 N/A

Powered by AerisWeather